This demonstration page uses our WeatherBlox Daily Observations layout. Learn more.

Left ArrowRight Arrow

36.17497, -115.13722

Hourly Observations for January 11, 2017

Temp ( °F °C ) Dew Point ( °F °C ) Humidity (%) Winds ( mph kmh ) Pressure ( in mb ) Visibility ( mi km ) Precip ( " mm )
12:53 am 00:53 Clear 57 13.9 37 2.8 47 47 SW 35 56 29.73 1007 10 16.0934 0 0
1:53 am 01:53 Clear 56 13.3 38 3.3 51 51 S 21 33 29.77 1008 10 16.0934 0 0
2:53 am 02:53 Cloudy 57 13.9 38 3.3 49 49 SSE 10 17 29.79 1009 10 16.0934 0 0
3:53 am 03:53 Cloudy 56 13.3 39 3.9 53 53 SE 9 15 29.78 1008 10 16.0934 0 0
4:53 am 04:53 Partly Cloudy 57 13.9 39 3.9 51 51 VRB 3 6 29.76 1008 10 16.0934 0 0
5:53 am 05:53 Mostly Cloudy 56 13.3 38 3.3 51 51 SE 14 22 29.78 1008 10 16.0934 0 0
6:53 am 06:53 Mostly Cloudy 57 13.9 39 3.9 51 51 SE 8 13 29.8 1009 10 16.0934 0 0
7:53 am 07:53 Sunny 57 13.9 38 3.3 49 49 VRB 7 11 29.84 1011 10 16.0934 0 0
8:53 am 08:53 Sunny 60 15.6 34 1.1 38 38 W 18 30 29.86 1011 10 16.0934 0 0
9:53 am 09:53 Sunny 61 16.1 34 1.1 36 36 VRB 3 6 29.88 1012 10 16.0934 0 0
10:53 am 10:53 Sunny 63 17.2 33 0.6 33 33 W 16 26 29.87 1012 10 16.0934 0 0
11:53 am 11:53 Sunny 63 17.2 32 0 31 31 W 15 24 29.83 1010 10 16.0934 0 0
12:53 pm 12:53 Partly Cloudy 64 17.8 33 0.6 32 32 W 10 17 29.8 1009 10 16.0934 0 0
1:53 pm 13:53 Mostly Sunny 64 17.8 31 -0.6 29 29 WSW 13 20 29.8 1009 10 16.0934 0 0
2:53 pm 14:53 Sunny 64 17.8 27 -2.8 25 25 WSW 20 31 29.81 1009 10 16.0934 0 0
3:53 pm 15:53 Sunny 63 17.2 27 -2.8 26 26 WSW 17 28 29.8 1009 10 16.0934 0 0
4:53 pm 16:53 Clear 60 15.6 28 -2.2 30 30 WSW 20 31 29.81 1010 10 16.0934 0 0
5:53 pm 17:53 Clear 58 14.4 28 -2.2 32 32 WSW 14 22 29.82 1010 10 16.0934 0 0
6:53 pm 18:53 Clear 58 14.4 27 -2.8 31 31 S 14 22 29.83 1010 10 16.0934 0 0
7:53 pm 19:53 Clear 57 13.9 29 -1.7 34 34 SSW 14 22 29.85 1011 10 16.0934 0 0
8:53 pm 20:53 Clear 56 13.3 29 -1.7 36 36 SSW 12 19 29.85 1011 10 16.0934 0 0
9:53 pm 21:53 Clear 55 12.8 31 -0.6 40 40 SSW 15 24 29.87 1012 10 16.0934 0 0
10:53 pm 22:53 Clear 55 12.8 31 -0.6 40 40 SSW 9 15 29.85 1011 10 16.0934 0 0
11:53 pm 23:53 Clear 54 12.2 33 0.6 45 45 S 13 20 29.86 1011 10 16.0934 0 0

Powered by AerisWeather